Location: Cranbrook Institute of Science
(42.5830°N, 83.2450°W)
Time: 13:14:50
(UTC-05:00)

Daily predictions for brighter satellites

Satellite Brightness Start Highest point End
(mag) Time Altitude Azimuth Time Altitude Azimuth Time Altitude Azimuth
Cosmos 1461 4.2 17:57:23 10° SSE 18:00:39 22° ESE 18:03:52 10° ENE
NOSS 0 Rocket 4.0 17:55:13 10° SSW 18:01:24 72° ESE 18:07:37 10° NNE
Cosmos 371 Rocket 3.3 17:58:03 10° SSW 18:02:51 89° WNW 18:07:42 10° NNE
SMAP 3.1 17:59:53 10° SSE 18:04:32 89° W 18:09:14 10° NNW
CZ-4 R/B 4.4 18:02:30 10° SSE 18:06:35 63° ENE 18:10:42 10° N
Cosmos 2360 Rocket 4.3 18:07:30 10° W 18:11:39 21° NW 18:15:51 10° N
CORIOLIS 4.3 18:11:06 10° SSE 18:16:27 82° WSW 18:21:51 10° NNW
Cosmos 1634 Rocket 4.0 18:10:30 10° N 18:16:42 89° ENE 18:22:53 10° S
Cosmos 1980 3.7 18:11:04 10° SSW 18:16:45 87° ESE 18:22:28 10° NNE
Abrixas 2.3 18:13:51 10° WSW 18:16:47 86° SE 18:19:25 12° ENE
ATLAS 5 CENTAUR R/B 4.3 18:20:31 10° NNE 18:20:54 10° NNE 18:21:17 10° NNE
IDEFIX/ARIANE 42P 3.4 18:16:16 10° S 18:21:22 55° W 18:26:32 10° NNW
Meteor 1-11 4.3 18:16:37 10° S 18:22:11 60° E 18:27:52 10° NNE
Lacrosse 5 rocket 1.3 18:20:28 10° NW 18:24:14 79° SW 18:28:12 10° SE
Cosmos 44 Rocket 4.3 18:20:15 10° SW 18:25:12 48° NW 18:30:05 10° NNE
Aureole 2 Rocket 2.7 18:23:37 10° SSW 18:27:21 72° ESE 18:31:26 10° NNE
FREGAT/IRIS 4.2 18:25:59 10° ESE 18:28:00 16° ENE 18:30:01 10° NNE
MSX 4.2 18:24:34 10° S 18:30:16 72° WSW 18:36:01 10° NNW
BREEZE-M DEB (TANK) 2.4 18:29:09 10° SW 18:31:32 42° SE 18:33:02 18° ENE
Cosmos 372 Rocket 4.0 18:26:41 10° NNW 18:31:48 84° WSW 18:36:54 10° SSE
Cosmos 1626 2.9 18:31:11 10° SSE 18:34:30 30° E 18:37:49 10° NNE
Cosmos 2219 Rocket 3.2 18:30:10 10° SW 18:35:33 45° WNW 18:40:57 10° NNE
Timation 1 Rocket 4.3 18:29:39 10° NNW 18:35:41 71° ENE 18:41:40 10° SSE
Cosmos 1707 Rocket 3.9 18:32:15 10° N 18:36:20 40° ENE 18:40:26 10° SSE
YAOGAN 1 3.8 18:33:03 10° S 18:37:12 45° W 18:41:22 10° NNW
Cosmos 540 Rocket 3.8 18:32:15 10° SSW 18:37:23 69° WNW 18:42:34 10° NNE
COSMO-SKYMED 1 2.5 18:33:13 10° NNE 18:37:34 70° E 18:41:53 10° S
Cosmos 2333 Rocket 2.9 18:32:45 10° SW 18:38:16 54° WNW 18:43:51 10° NNE
Cosmos 304 Rocket 3.8 18:34:30 10° S 18:39:15 63° ESE 18:44:01 10° NNE
BREEZE M DEB (TANK) 1.1 18:36:57 10° WNW 18:39:44 72° NNE 18:40:57 22° ESE
USA 215 3.4 18:37:56 10° ESE 18:44:16 54° NNE 18:50:37 10° NW
Cosmos 2151 3.6 18:41:36 10° SSW 18:45:45 58° W 18:49:53 10° N
CZ-4 R/B 4.1 18:44:04 10° SSW 18:47:07 22° W 18:50:12 10° NW
Cosmos 2278 Rocket 3.2 18:42:04 10° NW 18:47:34 51° WSW 18:53:02 10° S
Cosmos 1666 Rocket 3.9 18:43:30 10° SSE 18:47:35 42° E 18:51:44 10° NNE
CZ-4C R/B 4.5 18:44:38 10° NNW 18:47:52 14° NNE 18:50:36 11° NE
Cosmos 1726 3.7 18:45:08 10° NNW 18:48:40 38° W 18:52:12 10° SSW
Cosmos 1455 2.5 18:47:07 10° N 18:50:44 40° ENE 18:54:21 10° SSE
Resurs 01 Rocket 2.6 18:49:19 17° ESE 18:51:29 25° ENE 18:55:05 10° NNE
Cosmos 1703 3.1 18:50:10 10° S 18:54:02 75° E 18:57:56 10° NNE
SJ-6B 3.1 18:50:23 10° SE 18:54:17 46° ENE 18:58:15 10° N
Lacrosse 5 3.8 18:53:51 10° NW 18:56:53 16° N 18:59:05 12° NNE
Cosmos 1900 4.3 18:56:56 10° NNW 19:01:55 86° WSW 19:06:55 10° SSE
Cosmos 2279 Rocket 4.4 18:58:00 10° NNW 19:04:10 67° W 19:10:19 10° S
Cosmos 2237 Rocket 3.5 19:07:08 10° SW 19:12:21 38° WNW 19:17:38 10° N
Cosmos 2369 Rocket 3.4 19:11:24 10° N 19:15:09 23° NE 19:15:09 23° NE
Lacrosse 4 Rocket 1.4 19:14:18 10° NNW 19:18:16 50° ENE 19:18:28 49° ENE
SL-16 R/B 2.4 19:14:12 10° SSW 19:19:50 74° WNW 19:24:59 13° NNE
Cosmos 1470 Rocket 4.4 19:16:31 10° SSE 19:19:23 32° SE 19:19:23 32° SE
CENTAUR R/B 4.4 19:16:00 10° WNW 19:20:58 22° NNW 19:26:25 10° NNE
Cosmos 1340 Rocket 4.4 19:17:55 10° SW 19:21:33 35° WNW 19:25:11 10° N
Cosmos 2242 Rocket 3.4 19:18:16 10° N 19:22:41 66° E 19:27:06 10° SSE
Nadezhda 4 Rocket 4.0 19:18:12 10° S 19:24:28 89° E 19:30:50 10° N
ALOS 2.2 19:20:07 10° SSE 19:24:41 58° ENE 19:29:17 10° N
USA 229 DEB 3.7 19:19:33 10° SSW 19:26:17 63° ESE 19:29:43 31° NE
USA 229 3.7 19:19:39 10° SSW 19:26:23 62° ESE 19:29:46 31° NE
Spot 2 Rocket 3.5 19:21:51 10° SSE 19:26:46 56° ENE 19:31:42 10° N
Cosmos 1184 Rocket 2.9 19:23:49 10° SSW 19:27:09 73° W 19:27:43 56° NNW
Cosmos 2026 Rocket 4.3 19:22:48 10° SSE 19:28:29 40° E 19:29:04 39° ENE
Cosmos 292 Rocket 3.9 19:31:06 10° S 19:35:11 50° SE 19:35:11 50° SE
Cosmos 1869 3.2 19:32:05 10° N 19:36:09 90° WSW 19:40:12 10° S
Iridium 4 Rocket 2.9 19:32:07 10° S 19:36:36 82° E 19:38:16 37° N
Cosmos 1461 4.1 19:35:46 10° WSW 19:39:37 36° NW 19:41:07 27° N
Sich 1 3.9 19:36:46 10° SSW 19:41:05 52° WNW 19:45:26 10° N
Cosmos 1092 Rocket 4.0 19:39:30 10° S 19:45:51 87° W 19:52:15 10° N
FENGYUN 3A 3.6 19:44:34 10° SSE 19:49:56 85° WSW 19:55:21 10° NNW
Cosmos 1633 Rocket 4.0 19:45:49 10° SSW 19:50:03 47° WNW 19:53:52 13° N
Cosmos 923 Rocket 3.8 19:45:02 10° SSW 19:50:14 83° ESE 19:50:56 67° NE
Cosmos 1680 Rocket 3.6 19:51:54 10° S 19:56:20 62° SSE 19:56:20 62° SSE
Aureole 1 Rocket 4.3 19:55:36 10° SSW 20:01:03 65° WNW 20:07:42 12° NNE
ATLAS 5 CENTAUR R/B 3.8 20:02:38 10° NNW 20:05:22 22° N 20:05:22 22° N
Cosmos 2195 Rocket 4.4 20:03:56 10° S 20:10:03 85° W 20:13:15 30° N
BREEZE-M DEB (TANK) 4.4 20:02:24 10° WNW 20:16:01 51° N 20:16:12 51° N
NOSS 3-1 (C) 4.5 20:12:50 10° SSW 20:15:42 30° S 20:15:42 30° S
Cosmos 1603 4.1 20:19:01 10° SW 20:24:33 60° WNW 20:24:33 60° WNW
Cosmos 1943 Rocket 4.3 20:20:03 10° N 20:21:01 15° N 20:21:01 15° N
USA 215 3.9 20:24:57 36° S 20:27:17 50° SW 20:33:39 10° WNW
Resurs 01 Rocket 3.2 20:26:51 30° WSW 20:27:48 33° W 20:31:50 10° NNW
ATLAS 3B R/B 4.4 20:28:33 10° NNW 20:31:30 18° N 20:31:30 18° N
CZ-4C R/B 4.1 20:32:25 10° NNW 20:35:48 26° N 20:35:48 26° N
Lacrosse 5 4.3 20:37:18 10° NNW 20:38:18 14° NNW 20:38:18 14° NNW
Cosmos 2369 Rocket 4.1 20:54:47 10° NNW 20:56:59 24° NW 20:56:59 24° NW
